EW4931 Weather Reports


time (UTC)temp
F
wind
direction
speed
knots
gust
knots
rain 1hr
in
rain 24hr
in
rain mn
in
humidity
%
barometer
mb
20260506124522 51 175 6.1 13.9 0.00 0.00 0.00 38 1013.4
20260506124023 52 130 7.0 13.9 0.00 0.00 0.00 38 1013.3
20260506123742 53 200 4.3 10.4 0.00 0.00 0.00 39 1013.3
20260506123023 53 142 6.1 9.6 0.00 0.00 0.00 39 1013.2
20260506122744 53 148 3.5 11.3 0.00 0.00 0.00 39 1013.3
20260506122023 53 142 7.8 11.3 0.00 0.00 0.00 38 1013.4
20260506121523 53 118 4.3 12.2 0.00 0.00 0.00 38 1013.4
20260506121024 52 99 7.0 12.2 0.00 0.00 0.00 38 1013.4
20260506120522 52 73 4.3 12.2 0.00 0.00 0.00 39 1013.4
20260506120022 52 155 5.2 10.4 0.00 0.00 0.00 39 1013.4
20260506115750 52 148 4.3 10.4 0.00 0.00 0.00 39 1013.4
20260506115021 51 154 3.5 12.2 0.00 0.00 0.00 40 1013.4
20260506114523 51 106 7.8 12.2 0.00 0.00 0.00 38 1013.4
20260506114506 52 116 7.8 12.2 0.00 0.00 0.00 38 1013.4
20260506113522 52 221 5.2 11.3 0.00 0.00 0.00 37 1013.5
20260506113022 52 203 3.5 10.4 0.00 0.00 0.00 38 1013.4
20260506112522 52 133 2.6 6.1 0.00 0.00 0.00 38 1013.4
20260506112021 52 134 4.3 8.7 0.00 0.00 0.00 37 1013.5
20260506111521 52 282 4.3 8.7 0.00 0.00 0.00 37 1013.5
20260506111022 52 162 3.5 8.7 0.00 0.00 0.00 35 1013.5
20260506110521 52 202 3.5 8.7 0.00 0.00 0.00 34 1013.5
20260506110020 53 148 4.3 8.7 0.00 0.00 0.00 35 1013.6
20260506105520 52 161 3.5 11.3 0.00 0.00 0.00 36 1013.5
20260506105020 52 172 3.5 11.3 0.00 0.00 0.00 37 1013.6
20260506104520 52 165 4.3 10.4 0.00 0.00 0.00 37 1013.5
20260506104020 51 186 6.1 11.3 0.00 0.00 0.00 38 1013.6
20260506104006 51 131 7.0 11.3 0.00 0.00 0.00 36 1013.7
20260506103020 53 121 3.5 9.6 0.00 0.00 0.00 28 1013.7
20260506102520 52 145 5.2 9.6 0.00 0.00 0.00 26 1013.8
20260506102020 52 92 4.3 7.8 0.00 0.00 0.00 27 1013.7
20260506101521 53 87 5.2 6.1 0.00 0.00 0.00 26 1013.8
20260506101019 53 0 2.6 4.3 0.00 0.00 0.00 26 1013.8
20260506100519 53 151 1.7 4.3 0.00 0.00 0.00 26 1013.9
20260506100020 53 173 1.7 4.3 0.00 0.00 0.00 27 1013.9
20260506095748 52 188 2.6 7.8 0.00 0.00 0.00 26 1013.9
20260506095019 52 250 5.2 8.7 0.00 0.00 0.00 25 1014.1
20260506094519 52 313 1.7 8.7 0.00 0.00 0.00 26 1014.0
20260506094019 53 269 2.6 4.3 0.00 0.00 0.00 27 1014.1
20260506093519 53 41 1.7 7.8 0.00 0.00 0.00 27 1014.1
20260506093019 53 358 6.1 7.8 0.00 0.00 0.00 26 1014.1
20260506092518 53 283 0.9 7.8 0.00 0.00 0.00 28 1014.1
20260506092018 53 0 4.3 7.8 0.00 0.00 0.00 30 1014.0
20260506091518 53 306 3.5 5.2 0.00 0.00 0.00 26 1014.0
20260506091018 53 44 1.7 6.1 0.00 0.00 0.00 28 1014.0
20260506090518 52 224 2.6 6.1 0.00 0.00 0.00 30 1014.0
20260506090020 52 309 2.6 4.3 0.00 0.00 0.00 32 1013.9
20260506085517 52 276 3.5 4.3 0.00 0.00 0.00 33 1014.0
20260506085018 52 142 3.5 4.3 0.00 0.00 0.00 31 1013.9
20260506084517 51 124 1.7 6.1 0.00 0.00 0.00 31 1013.9
20260506084017 51 331 1.7 6.1 0.00 0.00 0.00 32 1013.9
20260506083517 51 357 2.6 6.1 0.00 0.00 0.00 34 1013.9
20260506083018 51 302 2.6 6.1 0.00 0.00 0.00 32 1013.9
20260506082517 52 331 3.5 4.3 0.00 0.00 0.00 34 1013.9
20260506082018 52 248 1.7 4.3 0.00 0.00 0.00 34 1013.9
20260506081517 51 8 2.6 4.3 0.00 0.00 0.00 33 1013.9
20260506081017 51 345 1.7 4.3 0.00 0.00 0.00 33 1013.8
20260506080516 51 316 1.7 4.3 0.00 0.00 0.00 34 1013.7
20260506073516 49 290 3.5 5.2 0.00 0.00 0.00 37 1013.6
20260506073017 49 340 3.5 5.2 0.00 0.00 0.00 37 1013.6
20260506072516 49 310 3.5 5.2 0.00 0.00 0.00 36 1013.6
20260506072240 49 310 1.7 4.3 0.00 0.00 0.00 38 1013.6
20260506071516 49 316 3.5 4.3 0.00 0.00 0.00 39 1013.6
20260506071016 49 0 0.9 4.3 0.00 0.00 0.00 42 1013.6
20260506070515 49 23 1.7 4.3 0.00 0.00 0.00 44 1013.6
20260506062516 47 309 1.7 3.5 0.00 0.00 0.00 48 1013.7
20260506062016 47 320 2.6 3.5 0.00 0.00 0.00 51 1013.6
20260506061514 46 34 1.7 3.5 0.00 0.00 0.00 53 1013.6
20260506061014 46 52 1.7 3.5 0.00 0.00 0.00 54 1013.6
20260506060515 46 47 1.7 2.6 0.00 0.00 0.00 54 1013.6
20260506051013 42 83 0.0 1.7 0.00 0.00 0.00 76 1013.2
20260506050513 41 83 0.0 1.7 0.00 0.00 0.00 78 1013.2
20260506045013 40 83 0.0 0.0 0.00 0.00 0.00 87 1013.1
20260506044950 39 83 0.0 0.0 0.00 0.00 0.00 89 1013.1
20260506044013 38 83 0.0 0.0 0.00 0.00 0.00 91 1013.1
20260506043513 37 83 0.0 0.0 0.00 0.00 0.00 91 1013.1
20260506043012 36 83 0.0 0.0 0.00 0.00 0.00 91 1013.0
20260506042730 36 83 0.0 0.0 0.00 0.00 0.00 91 1013.0
20260506042012 35 83 0.0 0.0 0.00 0.00 0.00 91 1012.9
20260506041512 35 83 0.0 0.0 0.00 0.00 0.00 91 1012.9
20260506041012 35 83 0.0 0.0 0.00 0.00 0.00 92 1012.8
20260506040512 35 83 0.0 0.0 0.00 0.00 0.00 91 1012.9
20260506040012 34 83 0.0 0.0 0.00 0.00 0.00 91 1012.9
20260506035512 34 83 0.0 0.0 0.00 0.00 0.00 91 1012.8
20260506035011 35 83 0.0 0.0 0.00 0.00 0.00 92 1012.7
20260506034733 35 83 0.0 0.0 0.00 0.00 0.00 92 1012.7
20260506034012 34 83 0.0 0.0 0.00 0.00 0.00 93 1012.5
20260506033512 34 83 0.0 0.0 0.00 0.00 0.00 93 1012.6
20260506033238 33 83 0.0 0.0 0.00 0.00 0.00 93 1012.6
20260506032511 33 83 0.0 0.0 0.00 0.00 0.00 92 1012.5
20260506032011 32 83 0.0 0.0 0.00 0.00 0.00 92 1012.5
20260506031511 32 83 0.0 0.0 0.00 0.00 0.00 92 1012.4
20260506031011 32 83 0.0 0.0 0.00 0.00 0.00 91 1012.3
20260506030511 31 83 0.0 0.0 0.00 0.00 0.00 91 1012.3
20260506030010 32 83 0.0 0.0 0.00 0.00 0.00 91 1012.3
20260506025510 32 83 0.0 0.0 0.00 0.00 0.00 91 1012.2
20260506025011 32 83 0.0 0.0 0.00 0.00 0.00 91 1012.1
20260506024510 32 83 0.0 0.0 0.00 0.00 0.00 91 1012.1
20260506024010 32 83 0.0 0.0 0.00 0.00 0.00 91 1012.2
20260506023510 32 83 0.0 0.0 0.00 0.00 0.00 91 1012.2
20260506023010 32 83 0.0 0.0 0.00 0.00 0.00 91 1012.1
20260506022510 32 83 0.0 0.0 0.00 0.00 0.00 90 1012.2
20260506022010 32 83 0.0 0.0 0.00 0.00 0.00 90 1012.1
20260506022004 32 83 0.0 0.0 0.00 0.00 0.00 90 1012.1
20260506021010 33 83 0.0 0.0 0.00 0.00 0.00 90 1012.0
20260506020509 33 83 0.0 0.0 0.00 0.00 0.00 90 1012.0
20260506020010 33 83 0.0 0.0 0.00 0.00 0.00 90 1011.9
20260506015509 33 83 0.0 0.0 0.00 0.00 0.00 90 1011.9
20260506015009 33 83 0.0 0.0 0.00 0.00 0.00 89 1011.9
20260506014509 33 83 0.0 0.0 0.00 0.00 0.00 89 1011.8
20260506014227 33 83 0.0 0.0 0.00 0.00 0.00 89 1011.8
20260506013509 33 83 0.0 0.0 0.00 0.00 0.00 89 1011.8
20260506013009 34 83 0.0 0.0 0.00 0.00 0.00 89 1011.7
20260506012508 34 83 0.0 0.0 0.00 0.00 0.00 89 1011.7
20260506012008 34 83 0.0 0.0 0.00 0.00 0.00 88 1011.6
20260506011739 34 83 0.0 0.0 0.00 0.00 0.00 89 1011.5
20260506011008 35 83 0.0 0.0 0.00 0.00 0.00 89 1011.5
20260506010947 35 83 0.0 0.0 0.00 0.00 0.00 90 1011.5
20260506010008 35 83 0.0 0.0 0.00 0.00 0.00 90 1011.3
20260506005506 35 83 0.0 0.0 0.00 0.00 0.00 91 1011.2
20260506005005 35 83 0.0 0.0 0.00 0.00 0.00 91 1011.3
20260506004505 35 83 0.0 0.0 0.00 0.00 0.00 91 1011.2
20260506004228 35 83 0.0 0.0 0.00 0.00 0.00 91 1011.2
20260506003506 34 83 0.0 0.0 0.00 0.00 0.00 91 1011.2
20260506003005 34 83 0.0 0.0 0.00 0.00 0.00 91 1011.2
20260506002505 34 83 0.0 0.0 0.00 0.00 0.00 90 1011.1
20260506002005 34 83 0.0 0.0 0.00 0.00 0.00 90 1011.1
20260506001505 34 83 0.0 0.0 0.00 0.00 0.00 90 1011.1
20260506001005 35 83 0.0 0.0 0.00 0.00 0.00 90 1011.0
20260506000504 35 83 0.0 0.0 0.00 0.00 0.00 90 1011.0
20260506000006 35 83 0.0 0.0 0.00 0.00 0.00 90 1011.0
20260505235504 35 83 0.0 0.0 0.00 0.00 0.00 89 1011.0
20260505235004 35 83 0.0 0.0 0.00 0.00 0.00 89 1010.9
20260505234504 36 83 0.0 0.0 0.00 0.00 0.00 89 1010.9
20260505234004 36 83 0.0 0.0 0.00 0.00 0.00 90 1011.0
20260505233503 36 83 0.0 0.0 0.00 0.00 0.00 89 1010.9
20260505233004 36 83 0.0 0.9 0.00 0.00 0.00 89 1010.9
20260505232504 36 83 0.0 0.9 0.00 0.00 0.00 89 1010.9
20260505232003 37 83 0.0 0.0 0.00 0.00 0.00 89 1010.8
20260505231504 37 83 0.0 0.9 0.00 0.00 0.00 89 1010.8
20260505231004 37 83 0.0 0.9 0.00 0.00 0.00 88 1010.7
20260505230725 37 83 0.0 0.0 0.00 0.00 0.00 89 1010.8
20260505230016 37 83 0.0 0.0 0.00 0.00 0.00 88 1010.7
20260505225504 38 83 0.0 0.0 0.00 0.00 0.00 88 1010.7
20260505225005 38 83 0.0 0.0 0.00 0.00 0.00 87 1010.7
20260505224505 38 83 0.0 0.0 0.00 0.00 0.00 88 1010.7
20260505224004 38 83 0.0 0.0 0.00 0.00 0.00 87 1010.7
20260505223504 38 83 0.0 0.0 0.00 0.00 0.00 87 1010.7
20260505223005 38 83 0.0 0.0 0.00 0.00 0.00 87 1010.6
20260505222504 38 83 0.0 0.0 0.00 0.00 0.00 86 1010.6
20260505222004 38 83 0.0 0.9 0.00 0.00 0.00 86 1010.5
20260505221504 38 83 0.0 1.7 0.00 0.00 0.00 87 1010.6
20260505221004 38 83 1.7 1.7 0.00 0.00 0.00 86 1010.5
20260505220504 38 83 0.0 1.7 0.00 0.00 0.00 86 1010.5
20260505220004 38 83 0.9 1.7 0.00 0.00 0.00 86 1010.4
20260505215728 38 83 0.0 1.7 0.00 0.00 0.00 85 1010.4
20260505215004 38 83 1.7 1.7 0.00 0.00 0.00 86 1010.4
20260505214504 39 83 0.9 1.7 0.00 0.00 0.00 86 1010.4
20260505214003 39 83 0.0 0.0 0.00 0.00 0.00 86 1010.4
20260505213504 39 83 0.0 0.0 0.00 0.00 0.00 85 1010.4
20260505213004 39 83 0.0 0.0 0.00 0.00 0.00 85 1010.3
20260505212719 39 83 0.0 0.9 0.00 0.00 0.00 84 1010.3
20260505212002 39 83 0.0 1.7 0.00 0.00 0.00 84 1010.3
20260505211502 40 83 0.9 1.7 0.00 0.00 0.00 84 1010.2
20260505211002 40 83 0.0 1.7 0.00 0.00 0.00 84 1010.2
20260505210503 40 83 0.0 0.9 0.00 0.00 0.00 84 1010.3
20260505210225 40 83 0.0 0.0 0.00 0.00 0.00 83 1010.2
20260505205503 40 83 0.0 0.0 0.00 0.00 0.00 83 1010.2
20260505205004 41 83 0.0 0.0 0.00 0.00 0.00 84 1010.1
20260505204504 40 83 0.0 0.9 0.00 0.00 0.00 83 1010.1
20260505204003 40 83 0.0 0.9 0.00 0.00 0.00 82 1010.0
20260505203504 41 83 0.0 0.0 0.00 0.00 0.00 82 1009.9
20260505203005 41 83 0.0 0.0 0.00 0.00 0.00 81 1009.8
20260505202505 42 83 0.0 0.0 0.00 0.00 0.00 81 1009.8
20260505202001 42 83 0.0 0.0 0.00 0.00 0.00 81 1009.7
20260505201456 42 83 0.0 0.0 0.00 0.00 0.00 80 1009.7
20260505200949 42 83 0.0 0.0 0.00 0.00 0.00 80 1009.7
20260505200709 43 83 0.0 0.9 0.00 0.00 0.00 80 1009.6
20260505195944 43 83 0.0 1.7 0.00 0.00 0.00 79 1009.7
20260505195432 43 83 0.9 1.7 0.00 0.00 0.00 79 1009.6
20260505194928 43 83 0.9 2.6 0.00 0.00 0.00 79 1009.6
20260505194406 43 83 1.7 3.5 0.00 0.00 0.00 79 1009.5
20260505194344 43 83 1.7 3.5 0.00 0.00 0.00 79 1009.4
20260505193404 44 82 1.7 3.5 0.00 0.00 0.00 79 1009.4
20260505192904 44 82 1.7 3.5 0.00 0.00 0.00 78 1009.3
20260505192403 44 82 2.6 3.5 0.00 0.00 0.00 78 1009.3
20260505191903 44 82 1.7 3.5 0.00 0.00 0.00 78 1009.2
20260505191404 44 82 1.7 5.2 0.00 0.00 0.00 78 1009.2
20260505190903 45 61 1.7 6.1 0.00 0.00 0.00 78 1009.1
20260505190403 45 73 4.3 6.1 0.00 0.00 0.00 77 1009.1
20260505185903 45 39 4.3 6.1 0.00 0.00 0.00 76 1009.1
20260505185403 46 86 4.3 8.7 0.00 0.00 0.00 73 1009.0
20260505184903 46 58 6.1 9.6 0.00 0.00 0.00 69 1008.9
20260505184403 47 71 7.0 9.6 0.00 0.00 0.00 47 1008.8
20260505184125 48 347 0.9 3.5 0.00 0.00 0.00 43 1008.7
20260505183403 49 344 1.7 4.3 0.00 0.00 0.00 42 1008.7
20260505182903 49 312 1.7 4.3 0.00 0.00 0.00 42 1008.6
20260505182404 49 317 2.6 5.2 0.00 0.00 0.00 41 1008.5
20260505181904 49 317 2.6 6.1 0.00 0.00 0.00 41 1008.5
20260505181404 49 334 3.5 6.1 0.00 0.00 0.00 40 1008.4
20260505181123 49 310 4.3 7.8 0.00 0.00 0.00 40 1008.3
20260505180403 49 300 3.5 7.8 0.00 0.00 0.00 39 1008.3
20260505175903 49 323 4.3 6.1 0.00 0.00 0.00 39 1008.3
20260505175404 49 307 3.5 8.7 0.00 0.00 0.00 39 1008.2
20260505174904 49 293 3.5 8.7 0.00 0.00 0.00 39 1008.2
20260505174403 49 326 3.5 9.6 0.00 0.00 0.00 39 1008.1
20260505173903 49 307 7.0 9.6 0.00 0.00 0.00 39 1008.1
20260505173626 50 288 4.3 8.7 0.00 0.00 0.00 38 1008.0
20260505173128 50 275 3.5 6.1 0.00 0.00 0.00 39 1008.0
20260505172403 50 320 5.2 8.7 0.00 0.00 0.00 39 1007.9
20260505171903 50 290 5.2 8.7 0.00 0.00 0.00 37 1007.9
20260505171403 50 289 2.6 5.2 0.00 0.00 0.00 37 1007.8
20260505170903 50 285 3.5 8.7 0.00 0.00 0.00 37 1007.9
20260505170404 51 282 2.6 8.7 0.00 0.00 0.00 37 1007.8
20260505165904 51 303 3.5 8.7 0.00 0.00 0.00 37 1007.8
20260505165403 50 299 3.5 8.7 0.00 0.00 0.00 37 1007.8
20260505164903 50 293 4.3 7.8 0.00 0.00 0.00 36 1007.8
20260505164403 50 306 4.3 7.8 0.00 0.00 0.00 37 1007.8
20260505163903 50 314 4.3 7.8 0.00 0.00 0.00 36 1007.7
20260505163403 51 293 2.6 12.2 0.00 0.00 0.00 37 1007.7
20260505163129 51 292 4.3 12.2 0.00 0.00 0.00 36 1007.7
20260505162404 51 313 4.3 10.4 0.00 0.00 0.00 37 1007.7
20260505161904 51 313 5.2 10.4 0.00 0.00 0.00 35 1007.7
20260505161404 51 290 5.2 8.7 0.00 0.00 0.00 35 1007.7
20260505160903 51 326 4.3 11.3 0.00 0.00 0.00 35 1007.6
20260505160404 52 314 4.3 11.3 0.00 0.00 0.00 35 1007.7
20260505160127 52 316 5.2 10.4 0.00 0.00 0.00 34 1007.6
20260505152902 53 0 3.5 9.6 0.00 0.00 0.00 34 1007.3
20260505152625 52 288 2.6 8.7 0.00 0.00 0.00 34 1007.4
20260505151903 51 316 5.2 8.7 0.00 0.00 0.00 35 1007.4
20260505151403 52 286 5.2 10.4 0.00 0.00 0.00 34 1007.3
20260505150903 52 292 8.7 12.2 0.00 0.00 0.00 33 1007.3
20260505150404 52 357 5.2 13.9 0.00 0.00 0.00 33 1007.3
20260505150123 52 274 5.2 13.9 0.00 0.00 0.00 34 1007.3
20260505140403 52 319 5.2 11.3 0.00 0.00 0.00 36 1007.2
20260505124905 51 310 8.7 13.0 0.00 0.00 0.00 37 1007.1
20260505124631 51 269 5.2 13.0 0.00 0.00 0.00 36 1007.0